• In Latvia
  • List of Countries
  • For 7 days
  • Water Temperature
  • Satellite Maps
  • Weather Map
  • Weather Widgets
  • user-avatar
    Login

    Hourly Weather Townsville

    Today, 25 March, Saturday

    Time Temperature Precipitation Wind Pressure Humidity
    00:00 +26°C° 0 mm 4 mps 750 mmHg 93%
    01:00 +25°C° 0 mm 4 mps 750 mmHg 94%
    02:00 +25°C° 0 mm 4 mps 750 mmHg 95%
    03:00 +25°C° 0 mm 4 mps 750 mmHg 96%
    04:00 +25°C° 0 mm 4 mps 749 mmHg 95%
    05:00 +25°C° 0 mm 4 mps 749 mmHg 95%
    06:00 +25°C° 0 mm 5 mps 750 mmHg 95%
    07:00 +25°C° 0 mm 5 mps 750 mmHg 95%
    08:00 +27°C° 0 mm 5 mps 750 mmHg 86%
    09:00 +29°C° 0 mm 5 mps 750 mmHg 77%
    10:00 +32°C° 0 mm 5 mps 750 mmHg 68%
    11:00 +33°C° 0 mm 5 mps 750 mmHg 64%
    12:00 +34°C° 0 mm 4 mps 750 mmHg 60%
    13:00 +35°C° 0 mm 4 mps 749 mmHg 55%
    14:00 +35°C° 0 mm 3 mps 749 mmHg 56%
    15:00 +35°C° 0 mm 3 mps 748 mmHg 58%
    16:00 +35°C° 0 mm 3 mps 748 mmHg 59%
    17:00 +33°C° 0 mm 3 mps 748 mmHg 63%
    18:00 +31°C° 0 mm 3 mps 749 mmHg 68%
    19:00 +30°C° 0 mm 3 mps 749 mmHg 73%
    20:00 +29°C° 0 mm 3 mps 749 mmHg 74%
    21:00 +29°C° 0 mm 3 mps 750 mmHg 76%
    22:00 +28°C° 0 mm 4 mps 750 mmHg 77%
    23:00 +27°C° 0 mm 4 mps 750 mmHg 77%

    Tomorrow, 26 March, Sunday

    Time Temperature Precipitation Wind Pressure Humidity
    00:00 +27°C° 0 mm 4 mps 750 mmHg 77%
    01:00 +26°C° 0 mm 4 mps 750 mmHg 77%
    02:00 +26°C° 0 mm 5 mps 749 mmHg 77%
    03:00 +25°C° 0 mm 5 mps 749 mmHg 76%
    04:00 +25°C° 0 mm 5 mps 749 mmHg 76%
    05:00 +23°C° 0 mm 5 mps 750 mmHg 78%
    06:00 +23°C° 0 mm 5 mps 750 mmHg 80%
    07:00 +23°C° 0 mm 6 mps 750 mmHg 82%
    08:00 +26°C° 0 mm 6 mps 750 mmHg 77%
    09:00 +28°C° 0 mm 5 mps 750 mmHg 72%
    10:00 +30°C° 0 mm 5 mps 751 mmHg 67%
    11:00 +32°C° 0 mm 5 mps 750 mmHg 63%
    12:00 +33°C° 0 mm 5 mps 749 mmHg 59%
    13:00 +35°C° 0 mm 5 mps 749 mmHg 56%
    14:00 +34°C° 0 mm 5 mps 748 mmHg 58%
    15:00 +33°C° 0 mm 5 mps 748 mmHg 59%
    16:00 +33°C° 0 mm 5 mps 747 mmHg 61%
    17:00 +32°C° 0 mm 5 mps 748 mmHg 63%
    18:00 +29°C° 0 mm 5 mps 748 mmHg 65%
    19:00 +28°C° 0 mm 5 mps 748 mmHg 67%
    20:00 +28°C° 0 mm 5 mps 749 mmHg 66%
    21:00 +28°C° 0 mm 6 mps 749 mmHg 64%
    22:00 +28°C° 0 mm 6 mps 750 mmHg 63%
    23:00 +28°C° 0 mm 7 mps 749 mmHg 64%

    Day after tomorrow, 27 March, Monday

    Time Temperature Precipitation Wind Pressure Humidity
    00:00 +28°C° 0 mm 7 mps 748 mmHg 65%
    01:00 +28°C° 0 mm 7 mps 748 mmHg 66%
    02:00 +28°C° 0.1 mm 8 mps 747 mmHg 67%
    03:00 +28°C° 0.1 mm 8 mps 747 mmHg 69%
    04:00 +27°C° 0.1 mm 9 mps 747 mmHg 71%
    05:00 +27°C° 0.1 mm 9 mps 747 mmHg 72%
    06:00 +27°C° 0.1 mm 9 mps 747 mmHg 74%
    07:00 +27°C° 0.1 mm 8 mps 747 mmHg 75%
    08:00 +28°C° 0 mm 9 mps 747 mmHg 73%
    09:00 +29°C° 0 mm 9 mps 747 mmHg 72%
    10:00 +31°C° 0 mm 9 mps 747 mmHg 70%
    11:00 +31°C° 0 mm 8 mps 747 mmHg 67%
    12:00 +32°C° 0 mm 8 mps 746 mmHg 65%
    13:00 +33°C° 0 mm 7 mps 745 mmHg 62%
    14:00 +34°C° 0 mm 6 mps 745 mmHg 60%
    15:00 +34°C° 0 mm 5 mps 744 mmHg 58%
    16:00 +35°C° 0 mm 4 mps 744 mmHg 56%
    17:00 +33°C° 0.2 mm 4 mps 744 mmHg 63%
    18:00 +32°C° 0.2 mm 4 mps 744 mmHg 69%
    19:00 +29°C° 0.2 mm 4 mps 745 mmHg 75%
    20:00 +29°C° 0.6 mm 5 mps 745 mmHg 79%
    21:00 +28°C° 0.6 mm 5 mps 745 mmHg 84%
    22:00 +27°C° 0.6 mm 6 mps 745 mmHg 88%
    23:00 +27°C° 1.7 mm 7 mps 744 mmHg 89%

    28 March, Tuesday

    Time Temperature Precipitation Wind Pressure Humidity
    00:00 +27°C° 1.7 mm 8 mps 744 mmHg 90%
    01:00 +26°C° 1.7 mm 9 mps 744 mmHg 91%
    02:00 +26°C° 1.7 mm 9 mps 743 mmHg 91%
    03:00 +26°C° 1.7 mm 9 mps 743 mmHg 90%
    04:00 +26°C° 1.7 mm 9 mps 742 mmHg 90%
    05:00 +26°C° 0.3 mm 9 mps 742 mmHg 88%
    06:00 +26°C° 0.3 mm 9 mps 743 mmHg 86%
    07:00 +27°C° 0.3 mm 9 mps 743 mmHg 85%
    08:00 +28°C° 0.4 mm 9 mps 744 mmHg 81%
    09:00 +29°C° 0.4 mm 8 mps 744 mmHg 77%
    10:00 +31°C° 0.4 mm 8 mps 744 mmHg 73%
    11:00 +29°C° 0.8 mm 7 mps 744 mmHg 78%
    12:00 +28°C° 0.8 mm 7 mps 743 mmHg 83%
    13:00 +27°C° 0.8 mm 6 mps 743 mmHg 88%
    14:00 +27°C° 1.8 mm 6 mps 743 mmHg 90%
    15:00 +27°C° 1.8 mm 6 mps 743 mmHg 91%
    16:00 +27°C° 1.8 mm 6 mps 742 mmHg 92%
    17:00 +27°C° 2.1 mm 5 mps 743 mmHg 93%
    18:00 +26°C° 2.1 mm 5 mps 744 mmHg 93%
    19:00 +26°C° 2.1 mm 5 mps 744 mmHg 94%
    20:00 +26°C° 1.7 mm 5 mps 745 mmHg 94%
    21:00 +26°C° 1.7 mm 5 mps 746 mmHg 94%
    22:00 +26°C° 1.7 mm 5 mps 746 mmHg 95%
    23:00 +26°C° 1.4 mm 5 mps 746 mmHg 95%

    29 March, Wednesday

    Time Temperature Precipitation Wind Pressure Humidity
    00:00 +26°C° 1.4 mm 5 mps 746 mmHg 95%
    01:00 +26°C° 1.4 mm 5 mps 746 mmHg 95%
    02:00 +26°C° 1.1 mm 5 mps 746 mmHg 95%
    03:00 +26°C° 1.1 mm 6 mps 746 mmHg 95%
    04:00 +26°C° 1.1 mm 6 mps 746 mmHg 94%
    05:00 +27°C° 0.4 mm 5 mps 746 mmHg 94%
    06:00 +27°C° 0.4 mm 5 mps 747 mmHg 93%
    07:00 +27°C° 0.4 mm 5 mps 748 mmHg 93%
    08:00 +27°C° 0.9 mm 5 mps 748 mmHg 90%
    09:00 +28°C° 0.9 mm 5 mps 748 mmHg 88%
    10:00 +29°C° 0.9 mm 5 mps 749 mmHg 85%
    11:00 +30°C° 0.6 mm 5 mps 748 mmHg 80%
    12:00 +32°C° 0.6 mm 5 mps 748 mmHg 74%
    13:00 +33°C° 0.6 mm 6 mps 747 mmHg 69%
    14:00 +33°C° 0.4 mm 6 mps 747 mmHg 71%
    15:00 +33°C° 0.4 mm 6 mps 747 mmHg 72%
    16:00 +32°C° 0.4 mm 6 mps 747 mmHg 74%
    17:00 +30°C° 0.5 mm 6 mps 747 mmHg 78%
    18:00 +29°C° 0.5 mm 6 mps 748 mmHg 83%
    19:00 +28°C° 0.5 mm 5 mps 748 mmHg 88%
    20:00 +28°C° 1.1 mm 6 mps 749 mmHg 88%
    21:00 +28°C° 1.1 mm 6 mps 749 mmHg 88%
    22:00 +28°C° 1.1 mm 6 mps 750 mmHg 89%
    23:00 +28°C° 0.9 mm 6 mps 749 mmHg 90%

    30 March, Thursday

    Time Temperature Precipitation Wind Pressure Humidity
    00:00 +28°C° 0.9 mm 5 mps 749 mmHg 91%
    01:00 +28°C° 0.9 mm 5 mps 749 mmHg 92%
    02:00 +27°C° 0.1 mm 5 mps 749 mmHg 93%
    03:00 +27°C° 0.1 mm 5 mps 749 mmHg 94%
    04:00 +27°C° 0.1 mm 5 mps 748 mmHg 94%
    05:00 +27°C° 0.7 mm 4 mps 749 mmHg 94%
    06:00 +27°C° 0.7 mm 4 mps 749 mmHg 93%
    07:00 +27°C° 0.7 mm 4 mps 750 mmHg 93%
    08:00 +29°C° 0.9 mm 4 mps 750 mmHg 86%
    09:00 +30°C° 0.9 mm 4 mps 750 mmHg 80%
    10:00 +33°C° 0.9 mm 5 mps 750 mmHg 73%
    11:00 +34°C° 0.3 mm 5 mps 749 mmHg 70%
    12:00 +34°C° 0.3 mm 5 mps 748 mmHg 67%
    13:00 +35°C° 0.3 mm 5 mps 748 mmHg 63%
    14:00 +34°C° 0.6 mm 5 mps 748 mmHg 68%
    15:00 +33°C° 0.6 mm 5 mps 748 mmHg 73%
    16:00 +32°C° 0.6 mm 5 mps 747 mmHg 78%
    17:00 +30°C° 1.6 mm 5 mps 748 mmHg 83%
    18:00 +29°C° 1.6 mm 5 mps 748 mmHg 87%
    19:00 +28°C° 1.6 mm 4 mps 749 mmHg 92%
    20:00 +28°C° 0.7 mm 4 mps 749 mmHg 92%
    21:00 +27°C° 0.7 mm 4 mps 749 mmHg 92%
    22:00 +27°C° 0.7 mm 4 mps 749 mmHg 92%
    23:00 +27°C° 0.4 mm 4 mps 749 mmHg 92%
    Show more